SL-14 DEB, 47090

Orbit data source: Space-Track

SL-14 DEB, 47090 is space debris in LEO originally from a launch on Thu, 15 Aug 1991 UTC launched from the Plesetsk Missile And Space Complex (PKMTR). Debris objects in space refer to the collection of defunct objects orbiting the Earth. Examples of debris include non-operational satellites, rocket bodies, and fragments generated from explosions, collisions, or faulty payload assembly.

Loading next visibility...
Identifier
47090, 1991-056DQ
Orbit
LEO
Country
Flag of CISCIS
Related business
Manufacturer
Unknown
Mission
Spacecraft
Bus & Motor
Unknown
Mass
Unknown
Launch date (UTC)
1991-08-15 (35 years ago)
Launch vehicle
Unknown
Launch site
Plesetsk Missile And Space Complex (PKMTR)
Object type
Payload
Rocket body
Debris
Shape & HBR
Unknown shape, 0.1 m
Radar Cross Section
Small (<0.1 m²)

Expand to show TLE details & history
Last TLE update: 20 hours ago

TLE from 20 hours ago
0 SL-14 DEB
1 47090U 91056DQ  26257.12998450  .00003916  00000-0  65297-2 0  9991
2 47090  82.6236  48.6993 0084554 302.1357  57.1596 13.44704233285217
Epoch: 2026-09-14T03:07Z
TLE epoch observation values (Epoch: 2026-09-14T03:07:10.660Z)
Latitude
-0.00007°
Longitude
8.79017°
Altitude
1,060.776 km
Speed
7.338 km/s
True Right ascension
03h 14m 47s
True Declination
0° 00' 00"
Sunlit
Object was in full shadow at epoch
Visualization orbit readout
Latitude
Unknown
Longitude
Unknown
Altitude
Unknown
Speed
Unknown
Apparent Right ascension
Unknown
Apparent Declination
Unknown
Sunlit
N/A
Visualization observer readout
Local Sidereal Time
16:03:40
Azimuth
Unknown
Elevation
Unknown
Doppler factor
Unknown
Orbital elements
Apogee altitude
1,152.147 km
Perigee altitude
1,025.872 km
Semi-major axis
7,467.147 km
Eccentricity
0.00846
Inclination
82.6236°
RAAN
48.6993°
Arg. of periapsis
302.1357°
True anomaly
57.97833°
Mean anomaly
57.1596°
Eccentric anomaly
57.5685°
Mean motion
3.36365 °/min
Orbital period
107.03 mins
BSTAR
0.0065297
Loading maneuver chart data...
Computing Atmospheric mass density...
Loading historical data...
Loading historical data...
Loading historical data...
Loading historical data...
Loading historical data...
Loading historical data...
Loading historical data...

Documentation

Showing up to 5 results
|